Weather in Ishimbay

Russia / Republic of Bashkortostan     53°27′16″N   56°02′38″E
temp.,
°C
wind,
m/s
gust,
m/s
humid.,
%
clouds,
%
prec.,
mm/h
press.,
hPa
HPBL,
m
1 march, mon
mon123:00−13nw239699 0.8 100862
02:00−15nw239695 0.1 101070
05:00−16nw229796 0.3 101241
08:00−17nw129795 0.1 101437
11:00−14nw229194 0.2 1016265
14:00−12nw2289100 0.2 1016373
17:00−11wnw2289100 0.4 1017323
20:00−15nnw229697 0.1 101820
2 march, tue
tue223:00−18wnw129896 0.2 101920
02:00−19sw129999 0.1 101920
05:00−20ssw3398100 0.1 101951
08:00−22s489786 0.0 1017142
11:00−19s7119386 0.0 1016330
14:00−15s91494100 0.2 1012465
17:00−13ssw91592100 0.9 1010674
20:00−10s81493100 1.1 1008643
3 march, wed
wed323:00−7s81493100 2.2 1005647
02:00−4ssw71495100 1.2 1002695
05:00−4ssw71295100 2.8 1002587
08:00−4sw61193100 0.8 1001402
11:00−2wsw5887100 0.9 1002752
14:00−1wsw4684100 0.1 1002854
17:00−2w3584100 0.1 1002741
20:00−6w348999 0.0 100357
4 march, thu
thu423:00−9wsw229599 0.1 100429
02:00−8sw2496100 0.4 100494
05:00−10w3595100 0.7 100590
08:00−13wsw2395100 0.1 100739
11:00−10wsw3592100 0.2 1008309
14:00−7sw478797 0.0 1008631
17:00−6sw6108999 0.3 1008624
20:00−7ssw71390100 0.0 1008540
5 march, fri
fri523:00−6ssw81490100 0.1 1007774
02:00−4ssw91692100 0.4 1004901
05:00−2ssw101789100 0.9 10021043
08:00−2sw111890100 0.3 10011188
11:00−1sw111787100 0.6 10021217
14:000wsw81494100 0.3 10041160
17:00−2w51177100 0.6 1008704
20:00−8w2387100 0.0 101123